Location: Dammartin
(48.9032°N, 1.6195°E)
Time: 11:47:29
(UTC+00:00)

Meteor PRIRODA - Pass Details

Date: 03 February 2023
Orbit: 473 x 489 km, 97.6° (Epoch: 29 March)

Event Time Altitude Azimuth Distance (km) Brightness Sun altitude
Rises 17:35:02 0° 169° (SSE) 2,511 7.3 -7.2°
Reaches altitude 10° 17:37:05 10° 170° (S) 1,638 6.3 -7.5°
Maximum altitude 17:40:35 77° 257° (WSW) 494 3.7 -8.0°
Drops below altitude 10° 17:44:09 10° 344° (NNW) 1,656 6.3 -8.6°
Sets 17:46:13 0° 346° (NNW) 2,542 7.2 -8.9°
